Location: *
(43.4667°N, 11.6833°E)
Time: 20:21:51
(UTC+00:00)

Cosmos 1992 Rocket - Pass Details

Date: 19 July 2019
Orbit: 758 x 766 km, 74.0° (Epoch: 24 August)

Event Time Altitude Azimuth Distance (km) Brightness Sun altitude
Rises 19:35:08 0° 341° (NNW) 3,241 8.3 -7.7°
Reaches altitude 10° 19:37:32 10° 344° (NNW) 2,312 7.4 -8.0°
Maximum altitude 19:42:46 70° 68° (ENE) 814 4.1 -8.8°
Drops below altitude 10° 19:47:58 10° 153° (SSE) 2,298 5.9 -9.5°
Enters shadow 19:48:00 10° 153° (SSE) 2,310 5.9 -9.5°
